C/2024 G5 ( Leonard )

Japanese version
Home page
Updated on May 11, 2024

---------------------------------------------------------------------

* Profile

Discovery Date April 5, 2024
Magnitude 20.8 mag
Discoverer G. J. Leonard (Mt. Lemmon Survey)

* Orbital Elements

Epoch 2024 Mar. 31.0 TT = JDT 2460400.5                                         
T 2024 Sept. 6.98478 TT                                 Rudenko                 
q   2.9529125            (2000.0)            P               Q                  
z  +0.0018833      Peri.  209.55729     -0.84680943     -0.02523943             
 +/-0.0000138      Node   316.39882     +0.49259955     -0.41401957             
e   0.9944387      Incl.   50.39019     -0.20064761     -0.90991800             
>From 92 observations 2023 Dec. 15-2024 May 5, mean residual 0".4.               

* Magnitudes Graph

        m1 = 7.0 + 5 log d + 20.0 log r

---------------------------------------------------------------------

The orbital elements are published on M.P.E.C. 2024-J126.
The magnitudes graphs are made with Comet for Windows.

---------------------------------------------------------------------

Copyright(C) Seiichi Yoshida (comet@aerith.net). All rights reserved.